GW5607 Weather Reports


time (UTC)temp
F
wind
direction
speed
knots
gust
knots
rain 1hr
in
rain 24hr
in
rain mn
in
humidity
%
barometer
mb
20260510204327 76 312 0.9 0.9 0.00 0.00 0.00 58 1016.1
20260510203824 77 184 0.9 1.7 0.00 0.00 0.00 58 1016.0
20260510203322 78 177 0.9 0.9 0.00 0.00 0.00 59 1015.9
20260510202822 78 355 0.9 1.7 0.00 0.00 0.00 56 1015.7
20260510202317 79 160 0.9 0.9 0.00 0.00 0.00 55 1015.8
20260510201814 80 115 0.0 0.9 0.00 0.00 0.00 53 1015.9
20260510201311 80 178 0.0 0.9 0.00 0.00 0.00 53 1015.8
20260510200808 80 327 1.7 1.7 0.00 0.00 0.00 53 1016.0
20260510200306 80 63 0.9 0.9 0.00 0.00 0.00 52 1016.0
20260510195802 80 177 0.0 0.0 0.00 0.00 0.00 52 1016.3
20260510195259 81 136 0.9 0.9 0.00 0.00 0.00 50 1016.3
20260510194758 81 175 0.0 0.9 0.00 0.00 0.00 48 1016.2
20260510194255 81 177 0.9 0.9 0.00 0.00 0.00 50 1016.1
20260510193752 80 171 0.9 0.9 0.00 0.00 0.00 55 1016.3
20260510193252 79 180 0.9 0.9 0.00 0.00 0.00 51 1016.2
20260510192748 80 146 0.9 0.9 0.00 0.00 0.00 52 1016.3
20260510192243 80 286 1.7 1.7 0.00 0.00 0.00 50 1016.2
20260510191740 80 358 1.7 1.7 0.00 0.00 0.00 51 1016.2
20260510191236 80 186 0.9 1.7 0.00 0.00 0.00 51 1016.2
20260510190734 80 186 0.0 0.9 0.00 0.00 0.00 53 1016.4
20260510190230 79 176 0.0 0.0 0.00 0.00 0.00 53 1016.3
20260510185727 80 178 0.0 0.9 0.00 0.00 0.00 53 1016.1
20260510185225 80 176 0.0 0.9 0.00 0.00 0.00 52 1016.1
20260510184721 80 249 1.7 1.7 0.00 0.00 0.00 52 1016.2
20260510184218 81 13 1.7 1.7 0.00 0.00 0.00 51 1016.2
20260510183714 80 177 0.0 0.0 0.00 0.00 0.00 53 1016.2
20260510183208 80 169 0.0 0.9 0.00 0.00 0.00 51 1016.0
20260510182705 80 184 0.9 0.9 0.00 0.00 0.00 54 1016.3
20260510182201 80 159 0.9 1.7 0.00 0.00 0.00 50 1016.3
20260510181658 80 176 0.0 0.0 0.00 0.00 0.00 52 1016.3
20260510181155 80 174 0.0 0.9 0.00 0.00 0.00 50 1016.2
20260510180650 80 11 1.7 1.7 0.00 0.00 0.00 49 1016.2
20260510180148 79 170 0.0 0.9 0.00 0.00 0.00 50 1016.2
20260510175644 78 176 0.9 0.9 0.00 0.00 0.00 49 1016.2
20260510175140 79 110 2.6 3.5 0.00 0.00 0.00 48 1016.1
20260510174638 78 130 3.5 5.2 0.00 0.00 0.00 50 1016.2
20260510174136 78 53 1.7 2.6 0.00 0.00 0.00 50 1016.1
20260510173631 79 61 1.7 1.7 0.00 0.00 0.00 49 1016.3
20260510173127 79 151 1.7 1.7 0.00 0.00 0.00 48 1016.1
20260510172623 80 154 0.9 0.9 0.00 0.00 0.00 49 1016.3
20260510172119 79 179 0.9 0.9 0.00 0.00 0.00 54 1016.2
20260510171616 78 210 0.0 0.9 0.00 0.00 0.00 55 1016.3
20260510171114 78 175 0.9 0.9 0.00 0.00 0.00 53 1016.5
20260510170610 78 271 1.7 1.7 0.00 0.00 0.00 54 1016.5
20260510170107 78 133 0.9 1.7 0.00 0.00 0.00 53 1016.2
20260510165602 79 51 1.7 2.6 0.00 0.00 0.00 53 1016.7
20260510165058 79 174 0.9 0.9 0.00 0.00 0.00 53 1016.6
20260510164556 78 110 0.9 0.9 0.00 0.00 0.00 54 1016.6
20260510164052 79 15 1.7 1.7 0.00 0.00 0.00 53 1016.4
20260510163548 79 222 1.7 1.7 0.00 0.00 0.00 53 1016.6
20260510163044 79 138 0.0 0.9 0.00 0.00 0.00 52 1016.5
20260510162539 80 174 0.0 0.9 0.00 0.00 0.00 52 1016.5
20260510162036 80 175 0.0 0.0 0.00 0.00 0.00 51 1016.5
20260510161532 80 173 0.0 0.9 0.00 0.00 0.00 48 1016.6
20260510161029 80 172 0.0 0.9 0.00 0.00 0.00 49 1016.2
20260510160526 80 173 0.0 0.0 0.00 0.00 0.00 50 1016.3
20260510160025 80 172 0.0 0.0 0.00 0.00 0.00 50 1016.4
20260510155522 80 179 0.0 0.9 0.00 0.00 0.00 47 1016.3
20260510155018 80 177 0.0 0.0 0.00 0.00 0.00 50 1016.4
20260510154514 79 193 0.9 0.9 0.00 0.00 0.00 49 1016.4
20260510154015 79 175 0.0 0.9 0.00 0.00 0.00 49 1016.3
20260510153510 79 174 0.0 0.0 0.00 0.00 0.00 52 1016.0
20260510153007 78 196 0.9 0.9 0.00 0.00 0.00 49 1016.1
20260510152504 78 172 0.0 0.0 0.00 0.00 0.00 51 1016.1
20260510152000 78 171 0.0 0.0 0.00 0.00 0.00 51 1016.0
20260510151457 78 200 1.7 1.7 0.00 0.00 0.00 50 1015.9
20260510150954 77 173 0.0 0.0 0.00 0.00 0.00 49 1015.6
20260510150450 77 172 0.0 0.0 0.00 0.00 0.00 52 1015.9
20260510145946 77 187 0.9 0.9 0.00 0.00 0.00 51 1015.6
20260510145442 76 168 0.0 0.0 0.00 0.00 0.00 52 1015.5
20260510144939 76 177 0.0 0.0 0.00 0.00 0.00 51 1015.8
20260510144435 76 182 0.0 0.0 0.00 0.00 0.00 52 1015.6
20260510143931 76 169 0.0 0.0 0.00 0.00 0.00 52 1015.6
20260510143426 76 163 0.0 0.0 0.00 0.00 0.00 54 1015.7
20260510142924 75 154 0.0 0.0 0.00 0.00 0.00 53 1015.7
20260510142421 75 178 0.0 0.0 0.00 0.00 0.00 50 1015.7
20260510141917 75 175 0.0 0.0 0.00 0.00 0.00 53 1015.6
20260510141414 75 178 0.0 0.0 0.00 0.00 0.00 55 1015.7
20260510140912 75 180 0.0 0.0 0.00 0.00 0.00 55 1015.4
20260510140408 74 178 0.0 0.0 0.00 0.00 0.00 56 1015.4
20260510135907 74 177 0.0 0.0 0.00 0.00 0.00 57 1015.3
20260510135403 74 177 0.0 0.0 0.00 0.00 0.00 60 1015.5
20260510134901 73 164 0.0 0.0 0.00 0.00 0.00 60 1015.3
20260510134357 73 162 0.0 0.0 0.00 0.00 0.00 60 1015.3
20260510133853 72 173 0.0 0.0 0.00 0.00 0.00 60 1015.4
20260510133349 72 174 0.0 0.0 0.00 0.00 0.00 61 1015.3
20260510132845 71 173 0.0 0.0 0.00 0.00 0.00 62 1015.2
20260510132343 70 172 0.0 0.0 0.00 0.00 0.00 63 1015.4
20260510131840 69 172 0.0 0.0 0.00 0.00 0.00 64 1015.5
20260510131338 68 173 0.0 0.0 0.00 0.00 0.00 66 1015.3
20260510130834 68 170 0.0 0.0 0.00 0.00 0.00 66 1015.3
20260510130331 66 170 0.0 0.0 0.00 0.00 0.00 69 1015.4
20260510125827 65 169 0.0 0.0 0.00 0.00 0.00 71 1015.3
20260510125324 64 164 0.0 0.0 0.00 0.00 0.00 72 1015.2
20260510124821 64 145 0.9 1.7 0.00 0.00 0.00 75 1015.3
20260510124318 63 177 0.0 0.0 0.00 0.00 0.00 72 1015.5
20260510123813 63 176 0.0 0.0 0.00 0.00 0.00 71 1015.5
20260510123309 63 177 0.0 0.0 0.00 0.00 0.00 71 1015.2
20260510122805 63 175 0.0 0.0 0.00 0.00 0.00 73 1015.0
20260510122305 63 175 0.0 0.0 0.00 0.00 0.00 71 1015.3
20260510121758 62 170 0.0 0.0 0.00 0.00 0.00 73 1015.2
20260510121256 61 169 0.0 0.0 0.00 0.00 0.00 75 1015.3
20260510120753 61 169 0.0 0.0 0.00 0.00 0.00 76 1015.3
20260510120249 61 169 0.0 0.0 0.00 0.00 0.00 74 1015.0
20260510115745 60 177 0.0 0.0 0.00 0.00 0.00 73 1015.1
20260510115244 60 177 0.0 0.0 0.00 0.00 0.00 76 1015.2
20260510114738 59 179 0.0 0.0 0.00 0.00 0.00 75 1015.1
20260510114236 59 170 0.0 0.0 0.00 0.00 0.00 77 1015.0
20260510113731 59 167 0.0 0.0 0.00 0.00 0.00 76 1014.6
20260510113228 58 163 0.0 0.0 0.00 0.00 0.00 77 1014.6
20260510112724 57 167 0.0 0.0 0.00 0.00 0.00 79 1014.5
20260510112222 57 173 0.0 0.0 0.00 0.00 0.00 79 1014.3
20260510111717 56 168 0.0 0.0 0.00 0.00 0.00 79 1014.4
20260510111214 56 168 0.0 0.0 0.00 0.00 0.00 81 1014.2
20260510110708 56 165 0.0 0.0 0.00 0.00 0.00 79 1014.2
20260510110206 56 166 0.0 0.0 0.00 0.00 0.00 80 1014.0
20260510105706 56 165 0.0 0.0 0.00 0.00 0.00 81 1014.0
20260510105206 56 164 0.0 0.0 0.00 0.00 0.00 80 1014.0
20260510104703 56 162 0.0 0.0 0.00 0.00 0.00 80 1013.7
20260510104200 56 165 0.0 0.0 0.00 0.00 0.00 79 1013.9
20260510103657 57 162 0.0 0.0 0.00 0.00 0.00 79 1013.8
20260510103154 57 160 0.0 0.9 0.00 0.00 0.00 79 1014.0
20260510102653 57 163 0.0 0.0 0.00 0.00 0.00 78 1013.9
20260510102150 57 159 0.9 0.9 0.00 0.00 0.00 77 1014.0
20260510101647 58 165 0.9 0.9 0.00 0.00 0.00 77 1014.0
20260510101146 58 164 0.0 0.0 0.00 0.00 0.00 75 1014.0
20260510100641 58 163 0.0 0.0 0.00 0.00 0.00 74 1013.9
20260510100139 59 161 0.9 0.9 0.00 0.00 0.00 73 1013.9
20260510095634 59 160 0.0 0.0 0.00 0.00 0.00 71 1013.9
20260510095130 59 97 0.9 1.7 0.00 0.00 0.00 70 1014.0
20260510094629 60 180 0.9 1.7 0.00 0.00 0.00 66 1013.9
20260510094125 61 173 0.0 0.0 0.00 0.00 0.00 63 1013.4
20260510093621 62 174 0.0 0.0 0.00 0.00 0.00 62 1013.4
20260510093118 63 172 0.0 0.0 0.00 0.00 0.00 62 1013.1
20260510092615 63 178 0.0 0.0 0.00 0.00 0.00 59 1012.9
20260510092115 63 179 0.0 0.0 0.00 0.00 0.00 59 1012.9
20260510091611 63 176 0.0 0.0 0.00 0.00 0.00 59 1012.8
20260510091107 63 177 0.0 0.0 0.00 0.00 0.00 59 1012.8
20260510090605 63 173 0.0 0.0 0.00 0.00 0.00 58 1012.7
20260510090100 64 173 0.0 0.0 0.00 0.00 0.00 57 1012.8
20260510085555 64 174 0.0 0.9 0.00 0.00 0.00 57 1012.5
20260510085051 64 171 0.0 0.9 0.00 0.00 0.00 56 1012.6
20260510084548 64 177 0.0 0.9 0.00 0.00 0.00 56 1012.7
20260510084045 64 178 0.0 0.0 0.00 0.00 0.00 56 1012.7
20260510083541 64 178 0.0 0.0 0.00 0.00 0.00 56 1012.6
20260510083038 63 174 0.0 0.0 0.00 0.00 0.00 57 1012.4
20260510082535 64 177 0.0 0.0 0.00 0.00 0.00 57 1012.6
20260510082030 64 178 0.0 0.0 0.00 0.00 0.00 57 1012.5
20260510081525 64 178 0.0 0.0 0.00 0.00 0.00 57 1012.5
20260510081021 64 179 0.0 0.9 0.00 0.00 0.00 57 1012.4
20260510080520 64 178 0.0 0.9 0.00 0.00 0.00 58 1012.5
20260510080017 64 178 0.0 0.0 0.00 0.00 0.00 57 1012.2
20260510075515 65 175 0.0 0.9 0.00 0.00 0.00 57 1012.1
20260510075012 65 184 0.9 0.9 0.00 0.00 0.00 55 1012.1
20260510074510 64 177 0.0 0.0 0.00 0.00 0.00 55 1012.1
20260510074004 65 178 0.0 0.0 0.00 0.00 0.00 55 1011.9
20260510073501 65 175 0.0 0.0 0.00 0.00 0.00 54 1012.0
20260510072957 65 174 0.0 0.0 0.00 0.00 0.00 54 1012.2
20260510072454 65 176 0.0 0.0 0.00 0.00 0.00 54 1012.2
20260510071950 65 178 0.0 0.0 0.00 0.00 0.00 54 1012.3
20260510071446 65 179 0.0 0.9 0.00 0.00 0.00 54 1012.4
20260510070944 65 188 0.9 0.9 0.00 0.00 0.00 54 1012.3
20260510070442 65 174 0.0 0.0 0.00 0.00 0.00 54 1012.3
20260510065937 65 176 0.0 0.0 0.00 0.00 0.00 54 1012.5
20260510065434 65 174 0.0 0.0 0.00 0.00 0.00 54 1012.4
20260510064930 65 177 0.9 0.9 0.00 0.00 0.00 54 1012.6
20260510064428 65 181 0.0 0.0 0.00 0.00 0.00 55 1012.5
20260510063924 65 185 0.9 0.9 0.00 0.00 0.00 54 1012.3
20260510063420 65 178 0.0 0.9 0.00 0.00 0.00 54 1012.4
20260510062919 65 176 0.0 0.0 0.00 0.00 0.00 53 1012.4
20260510062413 65 178 0.0 0.0 0.00 0.00 0.00 53 1012.2
20260510061909 66 178 0.0 0.0 0.00 0.00 0.00 53 1012.2
20260510061406 66 182 0.0 0.0 0.00 0.00 0.00 54 1012.2
20260510060902 65 180 0.0 0.0 0.00 0.00 0.00 52 1012.2
20260510060359 66 175 0.0 0.0 0.00 0.00 0.00 52 1012.3
20260510055855 66 175 0.0 0.0 0.00 0.00 0.00 51 1012.3
20260510055355 66 179 0.0 0.0 0.00 0.00 0.00 52 1012.3
20260510054854 66 176 0.0 0.0 0.00 0.00 0.00 52 1012.0
20260510054350 66 177 0.0 0.0 0.00 0.00 0.00 51 1012.2
20260510053845 66 176 0.0 0.9 0.00 0.00 0.00 52 1012.1
20260510053341 66 174 0.0 0.0 0.00 0.00 0.00 51 1012.1
20260510052837 66 174 0.0 0.0 0.00 0.00 0.00 51 1011.9
20260510052332 66 174 0.0 0.0 0.00 0.00 0.00 51 1012.0
20260510051829 66 176 0.0 0.0 0.00 0.00 0.00 51 1012.1
20260510051326 66 176 0.0 0.0 0.00 0.00 0.00 51 1012.0
20260510050823 66 176 0.0 0.0 0.00 0.00 0.00 51 1011.9
20260510050319 66 174 0.0 0.0 0.00 0.00 0.00 52 1011.7
20260510045817 66 177 0.0 0.0 0.00 0.00 0.00 51 1011.7
20260510045313 65 173 0.0 0.0 0.00 0.00 0.00 51 1011.8
20260510044811 65 171 0.0 0.0 0.00 0.00 0.00 51 1011.8
20260510044308 65 173 0.0 0.0 0.00 0.00 0.00 51 1011.9
20260510043804 66 165 0.0 0.0 0.00 0.00 0.00 51 1011.9
20260510043254 66 173 0.0 0.0 0.00 0.00 0.00 50 1011.7
20260510042752 66 172 0.0 0.0 0.00 0.00 0.00 49 1011.7
20260510042247 66 173 0.0 0.0 0.00 0.00 0.00 50 1011.8
20260510041744 66 173 0.0 0.0 0.00 0.00 0.00 50 1011.8
20260510041241 66 173 0.0 0.0 0.00 0.00 0.00 50 1011.6
20260510040739 66 174 0.0 0.0 0.00 0.00 0.00 50 1011.7
20260510040236 66 174 0.0 0.0 0.00 0.00 0.00 50 1011.9
20260510035730 67 174 0.0 0.0 0.00 0.00 0.00 50 1011.7
20260510035227 67 174 0.0 0.0 0.00 0.00 0.00 49 1011.8
20260510034722 67 174 0.0 0.0 0.00 0.00 0.00 50 1011.8
20260510034221 67 173 0.0 0.0 0.00 0.00 0.00 50 1011.9
20260510033716 67 171 0.0 0.0 0.00 0.00 0.00 50 1011.8
20260510033215 67 167 0.0 0.0 0.00 0.00 0.00 50 1011.8
20260510032710 67 172 0.0 0.0 0.00 0.00 0.00 49 1011.8
20260510032207 67 168 0.0 0.0 0.00 0.00 0.00 49 1011.9
20260510031701 67 174 0.0 0.0 0.00 0.00 0.00 50 1011.9
20260510031158 68 173 0.0 0.0 0.00 0.00 0.00 48 1011.8
20260510030652 68 172 0.0 0.0 0.00 0.00 0.00 47 1011.8
20260510030151 68 170 0.0 0.0 0.00 0.00 0.00 48 1011.7
20260510025648 68 171 0.0 0.0 0.00 0.00 0.00 46 1011.7
20260510025145 68 171 0.0 0.0 0.00 0.00 0.00 48 1011.7
20260510024642 68 173 0.0 0.0 0.00 0.00 0.00 47 1011.5
20260510024138 68 172 0.0 0.0 0.00 0.00 0.00 46 1011.5
20260510023634 68 173 0.0 0.0 0.00 0.00 0.00 45 1011.6
20260510023131 68 172 0.0 0.0 0.00 0.00 0.00 46 1011.7
20260510022626 68 167 0.0 0.0 0.00 0.00 0.00 48 1011.6
20260510022121 68 169 0.0 0.0 0.00 0.00 0.00 46 1011.3
20260510021616 68 168 0.0 0.0 0.00 0.00 0.00 46 1011.5
20260510021114 69 173 0.0 0.0 0.00 0.00 0.00 48 1011.3
20260510020608 69 165 0.0 0.0 0.00 0.00 0.00 46 1011.2
20260510020103 69 167 0.0 0.0 0.00 0.00 0.00 45 1011.3
20260510015600 69 167 0.0 0.0 0.00 0.00 0.00 45 1011.3
20260510015056 69 167 0.0 0.0 0.00 0.00 0.00 46 1011.1
20260510014552 68 169 0.0 0.0 0.00 0.00 0.00 45 1011.1
20260510014049 68 171 0.0 0.0 0.00 0.00 0.00 46 1010.9
20260510013543 68 171 0.0 0.0 0.00 0.00 0.00 49 1011.0
20260510013040 68 171 0.0 0.0 0.00 0.00 0.00 48 1010.8
20260510012533 68 171 0.0 0.0 0.00 0.00 0.00 48 1010.9
20260510012031 69 171 0.0 0.0 0.00 0.00 0.00 49 1010.9
20260510011530 69 171 0.0 0.0 0.00 0.00 0.00 44 1010.5
20260510011026 69 171 0.0 0.0 0.00 0.00 0.00 43 1010.6
20260510010523 70 171 0.0 0.0 0.00 0.00 0.00 44 1010.5
20260510010020 71 171 0.0 0.0 0.00 0.00 0.00 49 1010.6
20260510005516 71 170 0.0 0.0 0.00 0.00 0.00 42 1010.3
20260510005014 72 170 0.0 0.0 0.00 0.00 0.00 42 1010.3
20260510004511 72 170 0.0 0.0 0.00 0.00 0.00 41 1010.1
20260510004009 72 166 0.0 0.0 0.00 0.00 0.00 43 1010.1
20260510003505 73 167 0.0 0.0 0.00 0.00 0.00 41 1010.3
20260510003000 73 168 0.0 0.0 0.00 0.00 0.00 41 1010.1
20260510002457 74 169 0.0 0.0 0.00 0.00 0.00 41 1010.0
20260510001953 74 170 0.0 0.0 0.00 0.00 0.00 41 1010.1
20260510001451 74 169 0.0 0.0 0.00 0.00 0.00 40 1010.1
20260510000948 75 169 0.0 0.0 0.00 0.00 0.00 40 1010.2
20260510000444 75 169 0.0 0.0 0.00 0.00 0.00 38 1010.1
20260509235941 75 169 0.0 0.0 0.00 0.00 0.00 39 1009.9
20260509235437 76 170 0.0 0.0 0.00 0.00 0.00 38 1010.0
20260509234934 77 170 0.0 0.0 0.00 0.00 0.00 34 1009.8
20260509234430 77 170 0.0 0.0 0.00 0.00 0.00 36 1009.9
20260509233929 77 169 0.0 0.0 0.00 0.00 0.00 35 1009.8
20260509233426 77 169 0.0 0.0 0.00 0.00 0.00 33 1009.9
20260509232922 77 165 0.0 0.9 0.00 0.00 0.00 35 1009.6
20260509232420 78 172 0.0 0.0 0.00 0.00 0.00 35 1009.5
20260509231915 78 173 0.0 0.0 0.00 0.00 0.00 38 1009.8
20260509231412 78 170 0.0 0.0 0.00 0.00 0.00 40 1009.6
20260509230911 79 175 0.0 0.9 0.00 0.00 0.00 40 1009.7
20260509230407 79 174 0.0 0.0 0.00 0.00 0.00 39 1009.7
20260509225902 79 171 0.0 0.0 0.00 0.00 0.00 35 1009.7
20260509225400 79 147 0.0 0.0 0.00 0.00 0.00 36 1009.5
20260509224855 79 168 0.0 0.0 0.00 0.00 0.00 36 1009.7
20260509224351 80 165 0.9 0.9 0.00 0.00 0.00 33 1009.7
20260509223849 80 172 0.0 0.0 0.00 0.00 0.00 34 1009.6
20260509223345 80 165 0.9 1.7 0.00 0.00 0.00 37 1009.9
20260509222843 80 175 0.0 0.0 0.00 0.00 0.00 36 1009.7
20260509222343 80 175 0.9 0.9 0.00 0.00 0.00 36 1009.7
20260509221839 80 175 0.0 0.0 0.00 0.00 0.00 38 1009.9
20260509221337 81 169 0.0 0.0 0.00 0.00 0.00 37 1009.9
20260509220836 81 167 0.0 0.0 0.00 0.00 0.00 38 1009.8
20260509220333 81 174 0.0 0.0 0.00 0.00 0.00 36 1010.0
20260509215828 82 171 0.0 0.9 0.00 0.00 0.00 39 1009.7
20260509215325 82 176 0.0 0.0 0.00 0.00 0.00 35 1010.0
20260509214822 82 195 1.7 1.7 0.00 0.00 0.00 37 1009.7
20260509214319 83 163 0.9 0.9 0.00 0.00 0.00 35 1009.8
20260509213817 83 184 0.9 1.7 0.00 0.00 0.00 37 1009.6
20260509213312 82 169 0.9 0.9 0.00 0.00 0.00 37 1009.5
20260509212810 82 187 0.9 0.9 0.00 0.00 0.00 36 1009.6
20260509212307 83 152 0.9 1.7 0.00 0.00 0.00 34 1009.6
20260509211802 84 181 0.9 0.9 0.00 0.00 0.00 36 1009.5
20260509211259 84 193 0.9 0.9 0.00 0.00 0.00 37 1009.6
20260509210755 83 184 0.0 0.0 0.00 0.00 0.00 36 1009.6
20260509210253 83 185 0.9 0.9 0.00 0.00 0.00 38 1009.5
20260509205753 84 178 0.0 0.0 0.00 0.00 0.00 34 1009.6
20260509205247 84 191 1.7 1.7 0.00 0.00 0.00 37 1009.5
20260509204743 84 173 0.0 0.0 0.00 0.00 0.00 34 1009.7